[[{"header":{"parameterUnit":"m.s-1","parameterCategory":1,"la1":30.2991,"la2":30.254,"lo1":-89.0895,"lo2":-89.0444,"dy":0.0017,"dx":0.0017,"nx":28,"ny":28,"refTime":"2024-04-11T03:00:00:Z","depth":0,"parameterNumber":2,"parameterNumberName":"U-component_of_WINDS"},"data":[0,0,0,0,0,0,0,0,0,0,0,0,0,0,0,0,0,0,0,0,0,0,0,0,0,0,0,0,0,0,0,0,0,0,0,0,0,0,0,0,0,0,0,0,0,0,0,0,0,0,0,0,0,0,0,0,0,0,3.7152,3.7153,0,3.7264,3.7266,3.7267,3.7227,3.7224,3.7222,3.7219,3.7338,3.7343,3.7349,0,0,0,0,0,0,0,0,0,0,0,0,0,3.6906,3.6911,3.7152,3.7153,3.7155,3.7264,3.7266,3.7267,3.7227,3.7224,3.7221,3.7218,3.7336,3.7343,3.7349,0,0,0,0,0,0,0,0,0,0,0,0,0,3.7015,3.6913,3.7152,3.7148,3.7149,3.7264,3.7266,3.7268,3.7228,3.7224,3.722,3.7217,3.7334,3.7342,3.735,3.7477,0,0,3.7376,3.7379,0,0,0,0,0,0,0,0,3.7009,3.7025,3.7147,3.7148,3.7149,3.7228,3.7223,3.7338,3.7229,3.7198,3.7219,3.7215,3.7305,3.7315,3.7345,3.7483,3.7488,3.7376,3.7381,3.7385,3.7387,0,0,0,0,0,0,0,3.7002,3.702,3.7196,3.7149,3.715,3.7142,3.7153,3.7244,3.7271,3.72,3.7198,3.7211,3.7305,3.7337,3.7347,3.7489,3.7376,3.7383,3.7389,3.7392,3.7738,3.7742,0,0,0,0,0,0,3.6993,3.7013,3.7193,3.72,3.7069,3.7149,3.7162,3.7206,3.727,3.7276,3.7215,3.7209,3.7325,3.7338,3.7351,3.7504,3.7385,3.7393,3.7397,3.7734,3.7739,3.7744,0,0,0,0,0,0,3.6988,3.701,3.7188,3.7106,3.7128,3.7158,3.7208,3.7211,3.7243,3.7281,3.7286,3.7242,3.7322,3.734,3.7446,3.7508,3.7396,3.7404,3.7729,3.7736,3.7741,3.7811,0,0,0,0,0,0,3.6981,3.7008,3.7055,3.7107,3.7133,3.7281,3.7212,3.7216,3.7257,3.7251,3.7308,3.7314,3.732,3.7434,3.7454,3.7517,3.741,3.7724,3.7732,3.7739,3.7804,3.7819,3.7833,0,0,0,0,0,3.6973,3.7071,3.7058,3.708,3.7192,3.7284,3.7299,3.7303,3.7262,3.731,3.7335,3.7312,3.7498,3.7445,3.7468,3.7534,3.772,3.773,3.7739,3.7797,3.7816,3.7832,0,0,0,0,0,0,3.7027,3.7078,3.7064,3.7182,3.7229,3.7277,3.7339,3.7323,3.7384,3.7376,3.7379,3.7393,3.7503,3.7529,3.7469,3.7661,3.7603,3.7617,3.7639,3.7658,3.7672,3.7664,3.7417,0,0,0,0,0,3.7053,3.7122,3.7163,3.7263,3.7287,3.7309,3.7349,3.7348,3.7398,3.7418,3.745,3.75,3.7569,3.7615,3.7681,3.7807,3.782,3.7864,3.7879,3.789,3.7903,3.7973,3.7994,3.7775,3.7775,3.7775,0,0,3.7107,3.7143,3.7186,3.7275,3.7311,3.7384,3.7326,3.7405,3.7459,3.743,3.7532,3.7558,3.7614,3.7731,3.7784,3.7756,3.7966,3.7903,3.7912,3.7918,3.7985,3.8006,3.8024,3.7782,3.778,3.7779,0,0,3.7242,3.7276,3.7363,3.7401,3.7456,3.747,3.7491,3.7542,3.7558,3.766,3.764,3.7705,3.7824,3.7865,3.7902,3.8053,3.8035,3.8075,3.8151,3.8219,3.8236,3.8252,3.8306,3.8326,3.8087,3.8087,3.8088,0,3.7302,3.741,3.7411,3.7492,3.7532,3.7508,3.7597,3.7634,3.7709,3.7737,3.7705,3.7855,3.789,3.8017,3.8054,3.8084,3.811,3.8068,3.8233,3.8249,3.8263,3.8316,3.8336,3.8092,3.8091,3.8091,3.8091,0,3.7482,3.7557,3.7621,3.7692,3.774,3.7825,3.784,3.7888,3.7884,3.7902,3.8007,3.8049,3.8124,3.8154,3.815,3.8281,3.8262,3.8231,3.8173,3.8288,3.8338,3.8358,3.8098,3.8097,3.8095,3.8094,0,0,3.7655,3.7726,3.7749,3.7782,3.7841,3.79,3.7984,3.8056,3.8098,3.815,3.8222,3.8324,3.8296,3.8338,3.8339,3.8398,3.8517,3.8361,3.8362,3.8389,3.8665,3.8687,3.871,3.8505,3.8509,3.8512,3.866,0,3.7795,3.7942,3.7946,3.8081,3.8151,3.8129,3.8203,3.8248,3.8267,3.833,3.8352,3.8424,3.8382,3.8407,3.8465,3.849,3.8572,3.848,3.8573,3.8576,3.856,3.8736,3.876,3.8898,3.8679,3.8683,3.8685,0,3.7979,3.8036,3.8178,3.8228,3.8257,3.8323,3.839,3.845,3.8501,3.8511,3.8558,3.855,3.8638,3.8577,3.8698,3.8635,3.8674,3.8692,3.8698,3.8707,3.8638,3.8751,3.8942,3.8963,3.8715,3.8713,3.8711,0,3.8092,3.8205,3.8304,3.8332,3.8393,3.844,3.8468,3.8515,3.8558,3.8617,3.8645,3.8714,3.8752,3.8805,3.8817,3.8771,3.894,3.8879,3.8951,3.8951,3.8988,3.8986,3.9189,3.9012,3.9012,3.9011,3.9011,0,3.8249,3.8337,3.8356,3.8417,3.8515,3.8519,3.8617,3.8641,3.8684,3.875,3.8736,3.8799,3.881,3.8877,3.8887,3.8986,3.9004,3.9015,3.9017,3.9017,3.9015,3.9042,3.9033,3.9017,3.9016,3.9015,3.9014,0,3.8392,3.8408,3.8515,3.8563,3.8577,3.8648,3.869,3.8749,3.8766,3.8851,3.8871,3.8899,3.8977,3.8993,3.9085,3.9092,3.9211,3.9203,3.9193,3.9193,3.9264,3.9257,3.9492,3.9524,3.9326,3.9328,3.9329,0,3.8491,3.8558,3.8613,3.8656,3.8686,3.8756,3.8799,3.8807,3.8853,3.8917,3.8969,3.9044,3.9105,3.923,3.9259,3.9329,3.9323,3.9401,3.9334,3.9332,3.9326,3.9322,3.9329,3.9414,3.9416,3.9418,3.9419,0,3.8666,3.8671,3.8734,3.88,3.8852,3.8905,3.8956,3.8992,3.9006,3.9059,3.9137,3.9184,3.9278,3.9353,3.9424,3.9454,3.944,3.944,3.946,3.9461,3.9453,3.9459,3.9229,3.9435,3.9433,3.9432,3.9431,3.943,3.8791,3.885,3.8898,3.8969,3.9007,3.9054,3.9113,3.9137,3.9202,3.9278,3.9278,3.9364,3.9415,3.9508,3.9542,3.961,3.9586,3.9616,3.9624,3.9631,3.9638,3.9442,3.9623,3.9623,3.9622,3.9622,3.9622,0,3.8966,3.8996,3.9061,3.9131,3.9187,3.9167,3.9222,3.9271,3.9346,3.9394,3.9454,3.9544,3.9617,3.9652,3.9725,3.9773,3.9769,3.9792,3.9789,3.9796,3.9655,3.963,3.9795,3.9795,3.9795,3.9794,3.9794,3.9794,3.9064,3.9162,3.9172,3.929,3.932,3.9402,3.9436,3.948,3.9518,3.9619,3.9679,3.9701,3.9745,3.9821,3.9887,3.9896,3.9924,3.9951,3.9956,3.9824,3.9806,3.9789,3.9766,3.9957,3.9957,4.0092,4.0093,4.0094]},{"header":{"parameterUnit":"m.s-1","parameterCategory":1,"la1":30.2991,"la2":30.254,"lo1":-89.0895,"lo2":-89.0444,"dy":0.0017,"dx":0.0017,"nx":28,"ny":28,"refTime":"2024-04-11T03:00:00:Z","depth":0,"parameterNumber":3,"parameterNumberName":"V-component_of_WINDS"},"data":[0,0,0,0,0,0,0,0,0,0,0,0,0,0,0,0,0,0,0,0,0,0,0,0,0,0,0,0,0,0,0,0,0,0,0,0,0,0,0,0,0,0,0,0,0,0,0,0,0,0,0,0,0,0,0,0,0,0,-2.7965,-2.7967,0,-2.817,-2.8172,-2.8175,-2.8199,-2.8197,-2.8195,-2.8193,-2.8407,-2.8415,-2.8422,0,0,0,0,0,0,0,0,0,0,0,0,0,-2.7597,-2.7604,-2.7964,-2.7967,-2.797,-2.817,-2.8172,-2.8175,-2.8199,-2.8197,-2.8194,-2.8192,-2.8405,-2.8414,-2.8423,0,0,0,0,0,0,0,0,0,0,0,0,0,-2.7775,-2.7606,-2.7964,-2.8005,-2.8011,-2.8169,-2.8173,-2.8176,-2.82,-2.8197,-2.8194,-2.8191,-2.8402,-2.8413,-2.8424,-2.8556,0,0,-2.8459,-2.8464,0,0,0,0,0,0,0,0,-2.7765,-2.7789,-2.7997,-2.8003,-2.801,-2.8156,-2.8122,-2.8304,-2.82,-2.8128,-2.8193,-2.8189,-2.8326,-2.8344,-2.8389,-2.8566,-2.8575,-2.846,-2.8467,-2.8472,-2.8475,0,0,0,0,0,0,0,-2.7753,-2.778,-2.8046,-2.8,-2.8008,-2.8015,-2.8037,-2.8156,-2.8242,-2.8134,-2.8137,-2.816,-2.8329,-2.8378,-2.8394,-2.8578,-2.846,-2.847,-2.8477,-2.8481,-2.8876,-2.888,0,0,0,0,0,0,-2.7732,-2.777,-2.8039,-2.8052,-2.7877,-2.8024,-2.8049,-2.8112,-2.8241,-2.8257,-2.8163,-2.8161,-2.836,-2.8381,-2.8402,-2.8566,-2.8472,-2.8483,-2.8489,-2.8873,-2.8877,-2.8881,0,0,0,0,0,0,-2.7724,-2.7756,-2.8031,-2.7912,-2.7947,-2.8034,-2.8105,-2.8118,-2.8166,-2.8262,-2.8278,-2.8197,-2.8358,-2.8386,-2.8518,-2.8574,-2.8488,-2.8498,-2.8868,-2.8874,-2.8879,-2.8895,0,0,0,0,0,0,-2.7713,-2.7753,-2.7803,-2.7912,-2.7953,-2.8142,-2.8108,-2.8124,-2.8186,-2.8185,-2.8298,-2.8314,-2.8358,-2.8501,-2.8529,-2.8588,-2.8507,-2.8864,-2.8871,-2.8877,-2.889,-2.89,-2.8909,0,0,0,0,0,-2.77,-2.7799,-2.7805,-2.7838,-2.8017,-2.8145,-2.8169,-2.8216,-2.819,-2.8242,-2.8304,-2.831,-2.8563,-2.8514,-2.8546,-2.8609,-2.886,-2.8869,-2.8877,-2.8885,-2.8898,-2.8909,0,0,0,0,0,0,-2.7695,-2.7815,-2.7822,-2.7959,-2.8042,-2.8149,-2.8215,-2.8228,-2.8321,-2.8316,-2.8372,-2.8398,-2.8528,-2.8582,-2.8525,-2.8745,-2.8709,-2.8724,-2.8705,-2.8718,-2.8727,-2.8712,-2.8516,0,0,0,0,0,-2.771,-2.7802,-2.7902,-2.8014,-2.8055,-2.8128,-2.8185,-2.8215,-2.8303,-2.8338,-2.841,-2.8496,-2.8595,-2.8659,-2.8756,-2.8897,-2.8924,-2.8957,-2.8967,-2.8974,-2.8987,-2.9068,-2.9084,-2.8908,-2.8908,-2.8908,0,0,-2.7742,-2.7818,-2.7873,-2.8015,-2.8082,-2.8178,-2.8157,-2.8259,-2.8332,-2.8354,-2.8483,-2.8539,-2.8639,-2.8777,-2.8841,-2.8826,-2.9041,-2.8985,-2.899,-2.8999,-2.9078,-2.9095,-2.9109,-2.8913,-2.8912,-2.8911,0,0,-2.7848,-2.7915,-2.8016,-2.8084,-2.8185,-2.8234,-2.8258,-2.8364,-2.8401,-2.8531,-2.855,-2.8638,-2.8807,-2.8878,-2.8937,-2.9072,-2.9082,-2.9102,-2.9153,-2.9231,-2.9245,-2.9257,-2.9307,-2.9324,-2.9114,-2.9114,-2.9114,0,-2.7875,-2.8019,-2.8066,-2.8169,-2.8231,-2.8255,-2.8359,-2.8423,-2.8551,-2.8595,-2.8575,-2.8789,-2.8858,-2.9014,-2.9046,-2.9092,-2.9123,-2.9089,-2.9239,-2.9252,-2.9264,-2.9313,-2.9331,-2.9116,-2.9115,-2.9115,-2.9115,0,-2.8048,-2.8148,-2.8218,-2.834,-2.8411,-2.8513,-2.8577,-2.8643,-2.8667,-2.8717,-2.8851,-2.8934,-2.9049,-2.9088,-2.9112,-2.9248,-2.9235,-2.9227,-2.9192,-2.9282,-2.9328,-2.9347,-2.9118,-2.9117,-2.9117,-2.9116,0,0,-2.8158,-2.8305,-2.833,-2.8387,-2.8501,-2.858,-2.8685,-2.8795,-2.8851,-2.894,-2.903,-2.9173,-2.9166,-2.9232,-2.9265,-2.9333,-2.9437,-2.9317,-2.932,-2.9337,-2.9594,-2.96,-2.962,-2.9444,-2.9448,-2.9451,-2.9586,0,-2.8279,-2.8463,-2.8509,-2.8668,-2.8762,-2.8786,-2.8878,-2.8959,-2.9009,-2.9098,-2.9154,-2.9255,-2.9237,-2.9278,-2.9347,-2.941,-2.9489,-2.94,-2.9531,-2.9535,-2.9506,-2.9644,-2.9652,-2.9774,-2.9604,-2.9607,-2.9609,0,-2.8444,-2.8535,-2.8703,-2.8806,-2.8848,-2.8928,-2.9035,-2.9118,-2.9211,-2.9244,-2.9318,-2.9344,-2.9456,-2.9415,-2.9571,-2.9509,-2.9565,-2.9605,-2.9611,-2.9625,-2.9578,-2.9664,-2.9815,-2.9834,-2.9638,-2.9636,-2.9633,0,-2.8509,-2.8673,-2.8795,-2.8843,-2.8966,-2.9023,-2.9077,-2.9167,-2.9232,-2.9325,-2.9368,-2.9473,-2.9531,-2.9613,-2.9668,-2.9632,-2.982,-2.9783,-2.9851,-2.985,-2.989,-2.9887,-3.0053,-2.9924,-2.9924,-2.9924,-2.9923,0,-2.864,-2.8742,-2.8826,-2.8901,-2.9017,-2.907,-2.9183,-2.9238,-2.9319,-2.9407,-2.9434,-2.9516,-2.9583,-2.9675,-2.9719,-2.9842,-2.9868,-2.9899,-2.9909,-2.9897,-2.9893,-2.9935,-2.9929,-2.9929,-2.9927,-2.9926,-2.9926,0,-2.8732,-2.8792,-2.8927,-2.9033,-2.9062,-2.9142,-2.9234,-2.9309,-2.936,-2.9471,-2.95,-2.9582,-2.9691,-2.9754,-2.9892,-2.9922,-3.006,-3.0065,-3.0028,-3.0033,-3.0098,-3.0091,-3.0298,-3.0328,-3.0177,-3.0179,-3.018,0,-2.8812,-2.8891,-2.9005,-2.9065,-2.912,-2.9217,-2.9282,-2.9338,-2.9405,-2.9518,-2.958,-2.9691,-2.9783,-2.9957,-3.003,-3.0136,-3.0146,-3.0211,-3.0162,-3.0148,-3.0149,-3.0144,-3.0153,-3.0219,-3.0221,-3.0222,-3.0223,0,-2.8948,-2.8974,-2.9067,-2.917,-2.9248,-2.9332,-2.9416,-2.9464,-2.9534,-2.9609,-2.9721,-2.9792,-2.9933,-3.0044,-3.0157,-3.0215,-3.0232,-3.0237,-3.0259,-3.0248,-3.0223,-3.0239,-3.0052,-3.0233,-3.0232,-3.0231,-3.023,-3.023,-2.9038,-2.911,-2.9201,-2.9304,-2.9373,-2.9451,-2.9527,-2.9588,-2.9682,-2.98,-2.9828,-2.9946,-3.0039,-3.0192,-3.0253,-3.0348,-3.0336,-3.0367,-3.0376,-3.0383,-3.0386,-3.0207,-3.0368,-3.0368,-3.0368,-3.0368,-3.0368,0,-2.9177,-2.9237,-2.9331,-2.9447,-2.9529,-2.9536,-2.963,-2.9698,-2.9801,-2.9886,-2.9976,-3.0105,-3.0213,-3.0294,-3.0405,-3.0465,-3.0476,-3.0493,-3.049,-3.0503,-3.0389,-3.0359,-3.0482,-3.0482,-3.0482,-3.0482,-3.0482,-3.0482,-2.9259,-2.9381,-2.9418,-2.9576,-2.9636,-2.9751,-2.9804,-2.9878,-2.9946,-3.0089,-3.0178,-3.0229,-3.0314,-3.0431,-3.0531,-3.0552,-3.0593,-3.0609,-3.0631,-3.0523,-3.0511,-3.0499,-3.0472,-3.0617,-3.0617,-3.0738,-3.0739,-3.074]}]]